St. Inigoes, MD

9:49 AM EST on November 14, 2019 (GMT -0500)
Webster Naval Outlying Field

Weather History for KNUI - October, 2019

Change the Weather History Date:

Monday, October 21, 2019

  Actual Average (WUND) Record (WUND)
Temperature  
Mean Temperature 64 °F -  
Max Temperature 70 °F - - (-1)
Min Temperature 57 °F - - (-1)
Degree Days  
Heating Degree Days 2    
Growing Degree Days 14 (Base 50)    
Moisture  
Dew Point 54 °F    
Average Humidity 74    
Maximum Humidity 87    
Minimum Humidity 57    
Precipitation  
Precipitation 0.00 in - - ()
Sea Level Pressure  
Sea Level Pressure 30.02 in    
Wind  
Wind Speed 5 mph (ESE)    
Max Wind Speed 8 mph    
Max Gust Speed -    
Visibility 9 miles    
Events Rain    
Averages and records for this station are not official NWS values.
T = Trace of Precipitation, MM = Missing Value Source: NWS Daily Summary

Daily Weather History Graph

Daily Weather History Graph

Search for Another Location

Airport or City:

Astronomy

Oct. 21, 2019 Rise Set
Actual Time 7:20 AM EDT 6:20 PM EDT
Civil Twilight 6:53 AM EDT 6:46 PM EDT
Nautical Twilight 6:22 AM EDT 7:17 PM EDT
Astronomical Twilight 5:51 AM EDT 7:48 PM EDT
Moon No Moon Rise 2:33 PM EDT (10/21)
Length of Visible Light 11h 53m
Length of Day
10h 59m
Waning Gibbous, 48% of the Moon is Illuminated
Oct 21
Waning Gibbous
Oct 27
New
Nov 4
First Quarter
Nov 12
Full
Nov 19
Last Quarter

Hourly Weather History & Observations

Time (EDT) Temp. Dew Point Humidity Pressure Visibility Wind Dir Wind Speed Gust Speed Precip Events Conditions
12:50 AM 60.8 °F 55.4 °F 82% 29.91 in 10.0 mi North - - N/A   Overcast
12:53 AM 61.0 °F 55.9 °F 83% 29.91 in 10.0 mi North - - N/A   Overcast
1:30 AM 61.0 °F 55.0 °F 81% 29.92 in 9.0 mi Variable 5.8 mph - N/A   Overcast
1:43 AM 60.1 °F 55.0 °F 83% 29.93 in 5.0 mi Variable 5.8 mph - N/A   Haze
1:53 AM 60.1 °F 55.0 °F 83% 29.93 in 4.0 mi Variable 5.8 mph - 0.00 in Rain Light Rain
2:53 AM 57.9 °F 54.0 °F 87% 29.95 in 5.0 mi Variable 5.8 mph - 0.00 in   Overcast
3:53 AM 57.9 °F 53.1 °F 84% 29.96 in 8.0 mi Variable 5.8 mph - N/A   Overcast
4:53 AM 57.9 °F 53.1 °F 84% 29.97 in 10.0 mi Variable 5.8 mph - N/A   Overcast
6:53 AM 59.0 °F 53.1 °F 81% 30.01 in 8.0 mi Calm Calm - N/A   Overcast
7:53 AM 59.0 °F 53.1 °F 81% 30.04 in 7.0 mi Variable 4.6 mph - N/A   Overcast
8:11 AM 59.0 °F 53.6 °F 82% 30.04 in 2.5 mi Variable 3.5 mph - N/A   Haze
8:53 AM 59.0 °F 54.0 °F 83% 30.06 in 5.0 mi Variable 4.6 mph - N/A   Haze
9:20 AM 60.1 °F 53.1 °F 78% 30.06 in 10.0 mi Variable 5.8 mph - N/A   Overcast
9:53 AM 61.0 °F 53.1 °F 75% 30.07 in 10.0 mi Calm Calm - N/A   Overcast
11:29 AM 64.9 °F 52.0 °F 63% 30.07 in 10.0 mi Variable 5.8 mph - N/A   Scattered Clouds
11:53 AM 66.0 °F 52.0 °F 60% 30.07 in 10.0 mi Variable 4.6 mph - N/A   Scattered Clouds
12:53 PM 68.0 °F 54.0 °F 61% 30.07 in 10.0 mi Variable 3.5 mph - N/A   Partly Cloudy
1:53 PM 68.0 °F 53.1 °F 59% 30.05 in 10.0 mi WNW 6.9 mph - N/A   Partly Cloudy
2:15 PM 70.0 °F 54.0 °F 57% 30.04 in 10.0 mi Variable 4.6 mph - N/A   Mostly Cloudy
3:53 PM 66.9 °F 54.0 °F 63% 30.06 in 10.0 mi WSW 8.1 mph - N/A   Overcast
4:50 PM 68.0 °F 53.6 °F 60% 30.06 in 10.0 mi Calm Calm - N/A   Scattered Clouds
4:53 PM 68.0 °F 53.1 °F 59% 30.05 in 10.0 mi Calm Calm - N/A   Partly Cloudy
5:53 PM 66.0 °F 55.0 °F 68% 30.06 in 10.0 mi Calm Calm - N/A   Clear
6:53 PM 60.1 °F 54.0 °F 80% 30.06 in 10.0 mi East 3.5 mph - N/A   Clear
7:53 PM 59.0 °F 54.0 °F 83% 30.07 in 10.0 mi East 3.5 mph - N/A   Clear
8:53 PM 63.0 °F 55.0 °F 75% 30.09 in 10.0 mi SE 3.5 mph - N/A   Overcast
9:53 PM 64.0 °F 55.0 °F 73% 30.09 in 10.0 mi ESE 4.6 mph - N/A   Overcast
11:53 PM 64.0 °F 55.0 °F 73% 30.09 in 10.0 mi Calm Calm - N/A   Overcast